User: anonymous   Login
Location: Kergonan
(48.2337°N, 4.5518°W)
Time: 22:37:24
(UTC+00:00)
Language:

CZ-2C R/B - Orbit

View from above orbital plane
View from above orbital plane
View from above satellite
View from above satellite

Ground track
Ground track

The orbit data is extracted from the following two-line orbital elements,

1 36089U 09061B   20093.17368345 +.00000014 +00000-0 +14712-4 0  9997
2 36089 098.1468 069.2843 0082575 146.3362 224.1742 14.49821541549401
Epoch (UTC): 02 April 2020 04:10:06
Eccentricity: 0.0082575
inclination: 98.1468°
perigee height: 667 km
apogee height: 785 km
right ascension of ascending node: 69.2843°
argument of perigee: 146.3362°
revolutions per day: 14.49821541
mean anomaly at epoch: 224.1742°
orbit number at epoch: 54940

The dashed part of the orbit path shows where the satellite is in the earth's shadow,  

DLR